Weather History for Toledo, OH

Change the Weather History Date:

Friday, June 28, 2013

  Actual Average Record
Temperature  
Mean Temperature 73 °F 73 °F  
Max Temperature 82 °F 84 °F 103 °F (2012)
Min Temperature 63 °F 62 °F 47 °F (1970)
Degree Days  
Heating Degree Days 0 0  
Month to date heating degree days 31 35  
Since 1 June heating degree days 31 35  
Since 1 July heating degree days 6165 6145  
Cooling Degree Days 8 8  
Month to date cooling degree days 147 154  
Year to date cooling degree days 241 207  
Since 1 June cooling degree days 147 154  
Growing Degree Days 23 (Base 50)    
Moisture  
Dew Point 63 °F    
Average Humidity 76    
Maximum Humidity 100    
Minimum Humidity 51    
Precipitation  
Precipitation 0.02 in 0.11 in 1.29 in (1973)
Month to date precipitation 6.09 3.35  
Year to date precipitation 20.59 16.72  
Snow  
Snow 0.00 in 0.00 in - ()
Month to date snowfall 0.0 0.0  
Since 1 June snowfall 0.0 0.0  
Since 1 July snowfall 22.4 37.6  
Snow Depth 0.00 in    
Sea Level Pressure  
Sea Level Pressure 29.59 in    
Wind  
Wind Speed 7 mph (NW)    
Max Wind Speed 14 mph    
Max Gust Speed 21 mph    
Visibility 9 miles    
Events Rain , Thunderstorm    
T = Trace of Precipitation, MM = Missing Value Source: NWS Daily Summary

Daily Weather History Graph

Daily Weather History Graph

Search for Another Location

Airport:

Trip Planner

Search our weather history database for the weather conditions in past years. The results will help you decide how hot, cold, wet, or windy it might be!

Date:

Astronomy

Jun. 28, 2013 Rise Set
Actual Time 6:03 AM EDT 9:13 PM EDT
Civil Twilight 5:29 AM EDT 9:47 PM EDT
Nautical Twilight 4:45 AM EDT 10:31 PM EDT
Astronomical Twilight 3:53 AM EDT 11:23 PM EDT
Moon 12:05 AM EDT (6/28) 12:15 PM EDT (6/28)
Length of Visible Light 16h 17m
Length of Day
15h 09m
Waning Gibbous, 66% of the Moon is Illuminated
Jun 28
Waning Gibbous
Jun 30
Last Quarter
Jul 8
New
Jul 15
First Quarter
Jul 22
Full

Hourly Weather History & Observations

Time (EDT) Temp. Heat Index Dew Point Humidity Pressure Visibility Wind Dir Wind Speed Gust Speed Precip Events Conditions
12:52 AM 66.9 °F - 64.9 °F 93% 29.62 in 10.0 mi WSW 5.8 mph - N/A   Clear
1:52 AM 66.9 °F - 64.9 °F 93% 29.61 in 10.0 mi WSW 6.9 mph - N/A   Clear
2:52 AM 66.9 °F - 64.9 °F 93% 29.61 in 7.0 mi WSW 3.5 mph - N/A   Clear
3:45 AM 66.2 °F - 64.4 °F 94% 29.64 in 6.0 mi NNE 5.8 mph - N/A   Mostly Cloudy
3:52 AM 66.9 °F - 64.9 °F 93% 29.62 in 6.0 mi NNE 6.9 mph - N/A   Overcast
4:52 AM 66.9 °F - 64.0 °F 90% 29.61 in 7.0 mi NNE 3.5 mph - N/A   Partly Cloudy
5:52 AM 64.0 °F - 63.0 °F 96% 29.60 in 6.0 mi Calm Calm - N/A   Clear
6:52 AM 64.9 °F - 64.0 °F 97% 29.61 in 6.0 mi West 5.8 mph - N/A   Clear
7:23 AM 66.2 °F - 64.4 °F 94% 29.61 in 8.0 mi WNW 3.5 mph - N/A   Mostly Cloudy
7:52 AM 66.9 °F - 64.0 °F 90% 29.61 in 10.0 mi NW 5.8 mph - N/A   Overcast
8:52 AM 68.0 °F - 64.9 °F 90% 29.60 in 7.0 mi NNW 10.4 mph - N/A   Overcast
9:40 AM 71.6 °F - 64.4 °F 78% 29.61 in 10.0 mi WNW 8.1 mph - N/A   Overcast
9:52 AM 71.1 °F - 64.0 °F 78% 29.60 in 10.0 mi NW 9.2 mph - N/A   Mostly Cloudy
10:33 AM 73.4 °F - 64.4 °F 73% 29.60 in 10.0 mi NNW 6.9 mph - N/A   Overcast
10:52 AM 75.0 °F - 64.9 °F 71% 29.59 in 10.0 mi NNW 5.8 mph - N/A   Mostly Cloudy
11:19 AM 75.2 °F - 64.4 °F 69% 29.60 in 10.0 mi Variable 5.8 mph - N/A   Scattered Clouds
11:52 AM 77.0 °F - 63.0 °F 62% 29.58 in 10.0 mi WNW 9.2 mph - N/A   Scattered Clouds
12:52 PM 80.1 °F 81.2 °F 62.1 °F 54% 29.56 in 10.0 mi WNW 12.7 mph 17.3 mph N/A   Mostly Cloudy
1:52 PM 80.1 °F 80.9 °F 60.1 °F 50% 29.55 in 10.0 mi West 13.8 mph 20.7 mph N/A   Scattered Clouds
2:52 PM 81.0 °F 81.6 °F 60.1 °F 49% 29.53 in 10.0 mi WNW 11.5 mph - N/A   Mostly Cloudy
3:34 PM 73.4 °F - 62.6 °F 69% 29.54 in 6.0 mi NW 9.2 mph - 0.01 in Rain , Thunderstorm Light Rain
3:52 PM 73.0 °F - 62.1 °F 68% 29.54 in 10.0 mi WNW 8.1 mph - 0.01 in Thunderstorm Scattered Clouds
4:52 PM 73.9 °F - 61.0 °F 64% 29.53 in 10.0 mi North 10.4 mph - N/A Thunderstorm Scattered Clouds
5:52 PM 69.1 °F - 59.0 °F 70% 29.59 in 10.0 mi North 11.5 mph 18.4 mph 0.00 in Rain Light Rain
6:52 PM 68.0 °F - 62.1 °F 81% 29.57 in 10.0 mi NW 3.5 mph - 0.01 in Rain Light Rain
7:52 PM 66.0 °F - 60.1 °F 81% 29.58 in 10.0 mi Calm Calm - 0.00 in   Partly Cloudy
8:03 PM 66.2 °F - 60.8 °F 83% 29.59 in 9.0 mi NNW 4.6 mph - N/A Thunderstorm Mostly Cloudy
8:18 PM 66.2 °F - 60.8 °F 83% 29.59 in 10.0 mi NW 3.5 mph - 0.00 in   Mostly Cloudy
8:52 PM 66.0 °F - 61.0 °F 84% 29.58 in 10.0 mi NW 3.5 mph - 0.00 in   Clear
9:52 PM 64.9 °F - 60.1 °F 84% 29.58 in 10.0 mi West 4.6 mph - 0.00 in   Mostly Cloudy
10:52 PM 64.0 °F - 60.1 °F 87% 29.57 in 10.0 mi Calm Calm - N/A   Clear
11:52 PM 63.0 °F - 60.1 °F 90% 29.57 in 10.0 mi West 4.6 mph - N/A   Clear